星链-30189 (STARLINK-30189 )

导读 | 星芒AI

STARLINK-30189 是SpaceX星链计划中的一颗低轨道通信卫星,属于第三代星链卫星(Starlink V1.5或后续型号)。该卫星旨在为全球提供高速、低延迟的互联网服务,支持偏远地区的网络接入。它搭载先进通信设备,采用可展开的太阳能电池板,并具备自主变轨和避碰能力。STARLINK-30189 于2023年发射,是星链星座数千颗卫星之一,助力构建全球宽带网络基础设施。

基本信息
目录编号:
57430
目录名称:
STARLINK-30189
国际标识:
2023-105A
轨道中心:
EARTH
卫星名称:
星链-30189
卫星全名:
星链-30189 (STARLINK-30189 )
卫星状态:
在轨 (已飞行829 天)
发射日期:
2023-07-24 UTC
国别 :
美国 (US)
星等 :
--
轨道信息
数据来源 国际轨道数据
星历时间: 2025-10-30T06:02:20+0800
20小时前
查看轨道信息
半长轴: 6937.232km
偏心率: 0.0000915
轨道倾角: 43.002°
近地点辐角 267.555°
升交点赤经 252.702°
平近点角 92.519°
近地点: 558.462km
远地点: 559.732km
周期: 95.838分钟
每日圈数: 15.02531
详细信息
固有亮度:
5
最大亮度:
0.3
卫星平台:
Starlink v2.0 mini
覆盖范围:
全球
运营商:
太空探索技术公司
运营商所在国:
美国
制造商(研发单位):
太空探索技术公司
制造商所在国:
美国
使用方式:
暂无
卫星简介
星链(Starlink)计划是由太空探索技术公司(SpaceX)提出的一个巨型低轨卫星互联网星座项目,计划在2019年至2024年间在太空搭建由约1.2万颗卫星组成的“星链”网络,其中1584颗将部署在地球上空550千米处的近地轨道,并从2020年开始工作。该卫星仍在工作。
2D轨道图
3D轨道图
轨道高度分析图
轨道倾角分析图
轨道综合分析图
查看轨道综合分析图